Location: Franzen
(48.6167°N, 15.3833°E)
Time: 04:53:33
(UTC+00:00)

FENGYUN 1C DEB - Visible Passes

Search period start: 26 October 2021 00:00
Search period end: 05 November 2021 00:00
Orbit: 778 x 993 km, 99.1° (Epoch: 24 October)

Date Brightness Start Highest point End Pass type
(mag) Time Alt. Az. Time Alt. Az. Time Alt. Az.
26 Oct ? 17:17:33 20° ENE 17:17:49 20° ENE 17:21:30 10° N visible
26 Oct ? 19:00:19 44° NW 19:00:19 44° NW 19:03:52 10° NNW visible
27 Oct ? 17:16:08 20° ENE 17:16:16 20° ENE 17:19:54 10° NNE visible
27 Oct ? 18:58:53 42° NNW 18:58:53 42° NNW 19:02:19 10° NNW visible
28 Oct ? 17:14:42 19° ENE 17:14:44 19° ENE 17:18:18 10° NNE visible
28 Oct ? 18:57:27 40° NNW 18:57:27 40° NNW 19:00:46 10° NNW visible
29 Oct ? 17:13:16 19° NE 17:13:16 19° NE 17:16:42 10° NNE visible
29 Oct ? 18:56:01 38° NNW 18:56:01 38° NNW 18:59:12 10° NNW visible
30 Oct ? 17:11:49 18° NE 17:11:49 18° NE 17:15:06 10° NNE visible
30 Oct ? 18:54:35 37° NNW 18:54:35 37° NNW 18:57:39 10° NNW visible
31 Oct ? 17:10:22 18° NE 17:10:22 18° NE 17:13:31 10° NNE visible
31 Oct ? 18:53:08 35° NNW 18:53:08 35° NNW 18:56:06 10° NNW visible
01 Nov ? 17:08:56 17° NE 17:08:56 17° NE 17:11:55 10° NNE visible
01 Nov ? 18:51:41 34° NNW 18:51:41 34° NNW 18:54:33 10° NNW visible
02 Nov ? 17:07:28 17° NE 17:07:28 17° NE 17:10:19 10° NNE visible
02 Nov ? 18:50:14 32° NNW 18:50:14 32° NNW 18:53:00 10° NNW visible
03 Nov ? 17:06:01 17° NE 17:06:01 17° NE 17:08:43 10° NNE visible
03 Nov ? 18:48:46 31° NNW 18:48:46 31° NNW 18:51:27 10° NNW visible
04 Nov ? 17:04:33 16° NE 17:04:33 16° NE 17:07:07 10° NNE visible
04 Nov ? 18:47:18 30° NNW 18:47:18 30° NNW 18:49:54 10° NNW visible
